Weather Roundup
Issued by NWS Springfield, MO

Home | Current Version | Previous Version | Text Only | Print | Product List | Glossary On
Versions: 1 2 3 4 5 6 7 8 9 10 11 12 13 14 15 16 17 18 19 20 21 22 23 24 25 26 27 28 29 30 31 32 33 34 35 36 37 38 39 40 41 42 43 44 45 46 47 48 49 50
000
NZUS99 KSGF 190659
HRRSGF

HOURLY WEATHER
NATIONAL WEATHER SERVICE SPRINGFIELD MO
200 AM CDT SAT APR 19 2014

......SGF CWA......

CITY           SKY/WX    TMP DP  RH WIND       PRES   REMARKS
SPRINGFIELD    CLEAR     56  41  57 SE10      30.19F
JOPLIN         CLEAR     55  41  59 SE9       30.17F
WEST PLAINS    CLEAR     46  40  79 NE3       30.23F
ROLLA          CLEAR     51  40  65 SE9       30.22F
OSAGE BEACH    CLEAR     57  37  47 SE6       30.23F

......SURROUNDING SGF CWA......

CITY           SKY/WX    TMP DP  RH WIND       PRES   REMARKS
CHANUTE        CLEAR     45  39  79 S3        30.16S HAZE
PARSONS        CLEAR     43  37  79 CALM      30.17S
COFFEYVILLE    CLEAR     48  41  76 CALM      30.16S
EMPORIA        CLEAR     48  39  71 S8        30.13F
SILOAM SPRINGS CLEAR     54  39  58 E5        30.20F
HARRISON AR    CLEAR     55  40  56 S3        30.20F
NEAR YELLVILLE CLEAR     52  37  58 CALM      30.21F

......KANSAS AND MISSOURI......

CITY           SKY/WX    TMP DP  RH WIND       PRES   REMARKS
KANSAS CTY INT PTCLDY    54  41  61 SE12      30.16F
DOWNTOWN KC    PTCLDY    61  39  44 SE10      30.16F
COLUMBIA       CLEAR     55  39  54 E8        30.22F
SEDALIA        CLEAR     54  41  61 SE10      30.21S
ST JOSEPH      PTCLDY    56  41  57 SE9       30.16F
ST LOUIS       CLEAR     54  40  59 CALM      30.25S
SPIRIT OF STL  CLEAR     44  40  85 CALM      30.24F
KIRKSVILLE     CLEAR     48  33  56 E7        30.23S
WICHITA        PTCLDY    54  40  59 S12       30.11F
TOPEKA         CLEAR     52  41  66 E5        30.14F
OLATHE         PTCLDY    54  41  61 SE8       30.16F

......TENNESSEE......

CITY           SKY/WX    TMP DP  RH WIND       PRES   REMARKS
MEMPHIS        PTCLDY    58  51  78 CALM      30.18F
NASHVILLE      MOCLDY    51  47  86 CALM      30.17F

......ARKANSAS.......

CITY           SKY/WX    TMP DP  RH WIND       PRES   REMARKS
FAYETTEVILLE   CLEAR     48  44  86 CALM      30.20S
FT SMITH       CLEAR     55  47  74 NE6       30.18S
LITTLE ROCK    CLEAR     54  50  86 CALM      30.18F

......OKLAHOMA.......

CITY           SKY/WX    TMP DP  RH WIND       PRES   REMARKS
TULSA          CLEAR     54  44  69 CALM      30.14S
PONCA CITY     CLEAR     56  40  55 SE9       30.13F
MCALESTER      PTCLDY    57  43  59 SE6       30.17S
OKLAHOMA CITY  MOCLDY    52  42  69 S6        30.14S

......IOWA............

CITY           SKY/WX    TMP DP  RH WIND       PRES   REMARKS
DES MOINES     CLOUDY    52  34  50 SE10      30.18S
QUAD CITIES    CLEAR     41  33  73 E12       30.32S

......ILLINOIS........

CITY           SKY/WX    TMP DP  RH WIND       PRES   REMARKS
QUINCY         MOCLDY    50  29  44 E9        30.25S
CHICAGO        CLEAR     38  26  62 NE10      30.36F WCI  31




USA.gov is the U.S. government's official web portal to all federal, state and local government web resources and services.